You are here:

home

Questo sito é stato creato esclusivamente per valorizzare il lavoro svolto dall' intero
155° Gruppo E.T.S. del' Aeronautica Militare e non ha nessun fine commerciale ne di lucro. 
Pertanto, l' utilizzo delle foto é consentito solo per uso PRIVATO.

 

 
In alto

LIMS - Piacenza, San Damiano

[source: ADDS]
METAR
LIMS 301755Z 12011KT 9999 SCT035 BKN070 14/11 Q1011 RMK OVC VIS MIN 9999 WIND THR30 10009KT BLU =
TAF
TAF LIMS 301700Z 3018/0103 13010KT 7000 RA FEW030 SCT040 BKN070 PROB40 TEMPO 3020/0103 07010KT 4000 SHRA BR FEW015CB BKN025 =
In alto
WEB MASTER
Paolo "paolopaso" Pasotti
______________________________________
Last Update: 25/02/2011
_____________________________________________________________________________________________________________
© 2010 / 2011 - Tutti i diritti riservati
 
 
In alto